User: anonymous   Login
Location: Unspecified
(0.0000°N, 0.0000°E)
Time: 02:16:50
(UTC+00:00)
Language:

NEE 01 PEGASUS - Orbit

View from above orbital plane
View from above orbital plane
View from above satellite
View from above satellite

Ground track
Ground track

The orbit data is extracted from the following two-line orbital elements,

1 39151U 13018B   19049.81055504  .00000125  00000-0  23578-4 0  9990
2 39151  97.9706 147.1363 0016147 226.7838 133.2026 14.80000133313991
Epoch (UTC): 18 February 2019 19:27:11
Eccentricity: 0.0016147
inclination: 97.9706°
perigee height: 618 km
apogee height: 640 km
right ascension of ascending node: 147.1363°
argument of perigee: 226.7838°
revolutions per day: 14.80000133
mean anomaly at epoch: 133.2026°
orbit number at epoch: 31399

The dashed part of the orbit path shows where the satellite is in the earth's shadow,  

DLR